Location: Cormont
(50.5693°N, 1.7416°E)
Time: 07:07:52
(UTC+00:00)

Daily predictions for brighter satellites

Satellite Brightness Start Highest point End
(mag) Time Altitude Azimuth Time Altitude Azimuth Time Altitude Azimuth
Unknown 3.8 17:14:30 10° W 17:18:39 69° N 17:22:47 10° ENE
Cosmos 2263 Rocket 4.0 17:14:21 10° WSW 17:19:10 28° NW 17:23:59 10° NNE
COBE Rocket 4.5 17:14:30 10° NNE 17:19:20 38° E 17:24:02 10° SSE
Meteor 2-10 4.4 17:16:40 10° SSE 17:21:21 40° E 17:26:03 10° NNE
Unknown 3.8 17:17:50 10° W 17:21:58 68° N 17:26:07 10° ENE
Unknown 3.8 17:17:54 10° W 17:22:02 69° N 17:26:11 10° ENE
Cosmos 1758 4.3 17:18:42 10° SSW 17:22:34 50° WNW 17:26:28 10° N
Cosmos 1758 Rocket 4.4 17:18:24 10° NNW 17:22:47 58° W 17:27:11 10° S
Unknown 3.8 17:19:22 10° W 17:23:30 68° NNW 17:27:40 10° ENE
Nadezhda 3 Rocket 4.1 17:17:39 10° S 17:23:57 84° E 17:30:22 10° N
Cosmos 1535 Rocket 4.5 17:18:49 10° N 17:25:02 68° ENE 17:31:07 10° SSE
Cosmos 1470 3.9 17:21:24 10° SSW 17:25:16 49° WNW 17:29:10 10° N
Unknown 3.2 17:22:27 10° WNW 17:25:58 83° NNE 17:29:29 10° ESE
Unknown 3.8 17:22:38 10° W 17:26:46 68° N 17:30:55 10° ENE
Unknown 3.8 17:26:01 10° W 17:30:09 66° N 17:34:17 10° ENE
Unknown 3.8 17:27:44 10° W 17:31:52 66° N 17:35:59 10° ENE
YAOGAN 6 3.1 17:28:53 10° SE 17:32:16 37° ENE 17:35:38 10° N
Cosmos 292 Rocket 3.9 17:27:53 10° S 17:32:31 56° ESE 17:37:11 10° NNE
Cosmos 1833 Rocket 2.7 17:27:02 10° NNW 17:32:38 61° NE 17:38:12 10° SE
Cosmos 2058 4.5 17:29:55 10° NNE 17:32:43 17° ENE 17:35:30 10° ESE
Unknown 3.8 17:29:24 10° W 17:33:32 65° N 17:37:34 11° ENE
Unknown 3.7 17:29:48 10° WNW 17:33:36 59° N 17:37:14 11° E
Unknown 3.8 17:31:05 10° W 17:35:13 65° N 17:39:11 11° ENE
Unknown 3.8 17:34:26 10° W 17:38:34 64° N 17:42:23 12° ENE
Cosmos 2084 4.3 17:35:51 10° WSW 17:40:16 51° NW 17:44:37 10° NE
Unknown 3.9 17:36:09 10° W 17:40:17 64° N 17:44:02 12° ENE
NOSS 3-2 (A) 4.4 17:35:54 10° SSE 17:40:32 25° ESE 17:45:36 10° ENE
Cosmos 1328 3.7 17:37:46 10° N 17:41:46 85° ENE 17:45:43 10° S
Unknown 3.9 17:37:44 10° W 17:41:52 63° N 17:45:33 13° ENE
Cosmos 1271 Rocket 4.3 17:38:13 10° NNW 17:41:59 41° W 17:45:46 10° SSW
Unknown 3.9 17:39:21 10° W 17:43:29 63° N 17:47:06 13° ENE
SKYMED 2 3.9 17:39:21 10° NNE 17:43:30 43° E 17:47:38 10° S
SMAP 4.2 17:39:30 10° S 17:44:01 48° W 17:48:32 10° NNW
Ariane Rocket 3.9 17:39:46 10° ESE 17:44:06 29° ENE 17:48:27 10° N
Cosmos 2228 3.3 17:40:19 10° SSW 17:44:40 72° WNW 17:49:01 10° N
Unknown 3.9 17:41:22 10° W 17:45:30 63° N 17:49:03 14° ENE
YAOGAN 1 2.8 17:42:20 10° SE 17:46:30 48° ENE 17:50:41 10° N
Unknown 3.9 17:42:33 10° W 17:46:41 63° N 17:50:10 14° ENE
Unknown 3.9 17:45:53 10° W 17:50:00 63° N 17:53:22 15° ENE
Unknown 3.9 17:47:34 10° W 17:51:41 62° N 17:54:58 15° ENE
Cosmos 921 Rocket 3.5 17:47:26 10° SSW 17:51:54 67° WNW 17:56:21 10° NNE
Unknown 3.9 17:49:27 10° W 17:53:34 61° N 17:56:46 16° ENE
Cosmos 1300 3.9 17:51:11 10° SE 17:54:03 21° E 17:56:58 10° NE
Cosmos 1726 Rocket 4.1 17:50:10 10° SSW 17:54:30 62° WNW 17:58:50 10° N
Unknown 3.9 17:50:54 10° W 17:55:02 62° N 17:58:10 17° ENE
Unknown 3.7 17:51:17 10° WNW 17:55:09 61° N 17:57:58 18° E
Cosmos 1939 Rocket 3.6 17:51:43 10° SE 17:55:17 31° ENE 17:58:55 10° N
Abrixas rocket 3.0 17:53:03 10° SW 17:55:53 34° SSE 17:57:37 19° ESE
Unknown 3.9 17:52:31 10° W 17:56:39 62° N 17:59:43 17° ENE
Cosmos 489 Rocket 4.4 17:50:30 10° SSW 17:56:41 78° ESE 18:02:55 10° NNE
CZ-2D R/B 3.9 17:54:54 10° SE 17:58:26 35° ENE 18:02:00 10° N
Unknown 3.9 17:55:55 10° W 18:00:02 61° N 18:02:58 18° ENE
Unknown 3.9 17:57:33 10° W 18:01:41 61° N 18:04:32 19° ENE
Cosmos 1777 Rocket 4.4 17:57:39 10° NNW 18:02:50 66° WSW 18:07:59 10° S
Unknown 3.9 17:59:15 10° W 18:03:22 61° N 18:06:09 20° ENE
Cosmos 2082 Rocket 2.2 17:57:49 10° NNW 18:03:34 72° ENE 18:09:14 10° SE
Unknown 3.8 18:00:48 10° W 18:04:49 60° N 18:07:24 21° ENE
CSL-04 Debris 4.1 17:59:22 10° SSE 18:04:49 77° ENE 18:10:20 10° NNW
Unknown 3.9 18:00:53 10° W 18:05:00 61° N 18:07:43 20° ENE
BREEZE-M DEB (TANK) 4.0 18:00:46 10° WNW 18:05:02 68° SSW 18:16:46 10° ESE
NOSS 3-2 (C) 4.4 18:01:40 10° SSE 18:06:18 25° ESE 18:09:34 17° ENE
Cosmos 1242 Rocket 4.4 18:04:52 10° NNW 18:08:16 35° W 18:11:39 10° SSW
Unknown 3.9 18:04:18 10° W 18:08:25 61° N 18:10:59 22° ENE
Cosmos 1153 Rocket 4.4 18:02:33 10° N 18:08:40 63° ENE 18:14:44 10° SSE
ASTEX 1 3.5 18:04:10 10° N 18:09:09 85° W 18:14:08 10° S
Unknown 3.9 18:05:21 10° W 18:09:28 60° N 18:11:59 22° ENE
USA 116 3.6 18:06:37 10° NNE 18:09:42 43° E 18:13:01 10° S
Unknown 3.9 18:06:05 10° W 18:10:13 60° N 18:12:41 23° ENE
Unknown 3.8 18:07:24 10° W 18:11:27 60° N 18:13:50 23° ENE
Unknown 3.9 18:07:48 10° W 18:11:56 60° N 18:14:20 23° ENE
Cosmos 1844 Rocket 4.1 18:09:23 10° WSW 18:14:38 38° NW 18:19:53 10° NNE
Unknown 3.9 18:10:57 10° W 18:15:03 60° N 18:17:21 25° ENE
Unknown 4.0 18:13:38 10° WNW 18:16:54 43° SSW 18:19:12 17° SE
Unknown 3.9 18:14:14 10° W 18:18:21 60° N 18:20:30 26° ENE
Cosmos 1461 3.8 18:15:05 10° NW 18:19:01 47° WSW 18:23:04 10° SSE
Unknown 3.9 18:15:56 10° W 18:20:04 60° N 18:22:08 27° ENE
Cosmos 2058 Rocket 4.0 18:16:19 10° SSW 18:20:34 51° WNW 18:24:51 10° N
Unknown 3.9 18:17:34 10° W 18:21:41 60° N 18:23:42 28° ENE
Lacrosse 5 2.3 18:18:10 10° WNW 18:23:10 61° SW 18:27:30 14° SE
Unknown 3.8 18:19:15 10° W 18:23:22 60° N 18:25:18 29° ENE
SL-27 R/B 4.3 18:22:20 10° N 18:23:38 16° NNE 18:23:38 16° NNE
SJ 16-02 2.2 18:21:01 10° N 18:24:56 30° ENE 18:25:44 28° ENE
FALCON 9 DEB 4.1 18:22:46 10° WNW 18:26:07 44° SSW 18:28:00 22° SSE
CZ-4 R/B 2.2 18:22:04 10° S 18:26:12 56° W 18:30:23 10° NNW
In-Cosmos 22 Rocket 4.3 18:22:14 10° N 18:27:30 49° ENE 18:32:45 10° SSE
SPOT 3 Rocket 4.4 18:26:37 26° E 18:27:55 29° ENE 18:32:21 10° N
ATLAS CENTAUR R/B 3.3 18:25:39 10° NNW 18:28:54 18° NNE 18:30:12 16° NE
Unknown 3.8 18:25:56 10° WNW 18:30:03 61° N 18:31:42 33° ENE
COSMO-SKYMED 1 2.9 18:27:20 10° N 18:31:39 67° WNW 18:35:58 10° SSW
Unknown 3.8 18:27:38 10° WNW 18:31:45 61° N 18:33:20 34° ENE
Cosmos 2084 Rocket 3.6 18:28:46 10° NW 18:33:13 75° SW 18:36:06 21° SSE
Unknown 3.8 18:29:13 10° WNW 18:33:20 61° N 18:34:51 36° ENE
ATLAS 3B R/B 3.4 18:28:15 10° S 18:33:49 28° ESE 18:35:04 27° E
ATLAS 5 CENTAUR R/B 3.5 18:30:53 10° WNW 18:34:47 26° NNW 18:39:03 10° NE
Unknown 3.8 18:30:56 10° WNW 18:35:03 61° N 18:36:29 37° ENE
Unknown 3.8 18:32:35 10° WNW 18:36:42 62° N 18:38:04 38° ENE
Cosmos 1726 4.1 18:33:52 10° SW 18:37:08 30° WNW 18:40:25 10° N
Cosmos 1908 4.4 18:34:28 10° SSW 18:38:13 46° WNW 18:41:59 10° N
Unknown 3.3 18:34:56 10° WNW 18:38:41 83° SSW 18:39:40 47° ESE
Unknown 3.8 18:35:54 10° WNW 18:40:02 62° N 18:41:16 41° ENE
Unknown 4.2 18:38:03 10° WNW 18:41:23 40° SSW 18:42:37 29° SSE
CENTAUR R/B 3.1 18:36:18 10° S 18:41:31 32° ESE 18:42:36 30° E
Starlink (trailer) 3.8 18:37:34 10° WNW 18:41:42 62° N 18:42:51 42° ENE
Cosmos 1459 Rocket 3.9 18:37:08 10° N 18:43:21 68° ENE 18:49:38 10° SSE
Unknown 3.8 18:39:16 10° WNW 18:43:24 62° N 18:44:29 44° ENE
H-2A R/B 2.8 18:42:58 32° E 18:43:44 34° ENE 18:48:35 10° N
Cosmos 2061 Rocket 4.1 18:38:50 10° N 18:44:58 53° ENE 18:49:20 19° SE
Unknown 3.8 18:40:56 10° WNW 18:45:03 63° N 18:46:05 46° ENE
SJ-6B 4.3 18:47:30 22° NNE 18:47:30 22° NNE 18:49:19 10° N
Cosmos 2278 Rocket 2.5 18:40:41 10° SW 18:46:21 70° WNW 18:52:03 10° NNE
Cosmos 1898 Rocket 3.4 18:41:58 10° NNW 18:47:15 69° ENE 18:50:02 28° SE
SJ-11-01 4.4 18:46:45 39° ESE 18:48:01 50° ENE 18:52:33 10° N
Cosmos 1766 Rocket 3.9 18:44:44 10° N 18:48:34 42° ENE 18:48:34 42° ENE
Unknown 3.7 18:45:36 10° WNW 18:49:43 64° N 18:50:31 51° ENE
Cosmos 2297 3.9 18:44:48 10° S 18:50:15 49° ESE 18:53:21 25° NE
Unknown 3.7 18:47:35 10° WNW 18:51:43 64° N 18:52:27 52° ENE
Unknown 3.7 18:49:34 10° WNW 18:53:43 65° N 18:54:23 54° NE
Unknown 3.7 18:50:53 10° WNW 18:55:04 65° N 18:55:40 56° NE
Unknown 3.7 18:52:36 10° WNW 18:56:44 65° N 18:57:15 58° NE
Unknown 3.6 18:54:22 10° WNW 18:58:31 66° N 18:58:57 61° NE
Okean 3 Rocket 3.5 18:54:39 10° N 18:59:12 70° ENE 19:00:14 50° SE
Cosmos 1076 Rocket 4.1 18:55:11 10° NNW 18:59:29 58° W 19:03:44 10° S
Unknown 3.6 18:57:41 10° WNW 19:01:50 67° N 19:02:08 64° NE
Unknown 3.6 18:57:46 10° WNW 19:01:54 67° N 19:02:12 64° NE
Unknown 3.6 18:59:14 10° WNW 19:03:23 67° N 19:03:37 65° NE
Resurs 01 Rocket 3.6 19:06:07 17° NNE 19:06:07 17° NNE 19:07:31 10° N
ARGOS 3.4 19:05:12 45° ENE 19:05:24 45° ENE 19:10:34 10° N
Unknown 3.6 19:02:29 10° WNW 19:06:39 68° N 19:06:45 67° NNE
USA 238 DEB 3.6 19:00:47 10° SW 19:07:31 90° NW 19:12:35 20° NE
USA 238 3.6 19:00:53 10° SW 19:07:38 90° ESE 19:12:38 21° NE
Cosmos 1892 3.6 19:04:26 10° N 19:06:54 37° N 19:06:54 37° N
Cosmos 1727 Rocket 4.4 19:03:03 10° SSW 19:09:10 65° WNW 19:15:20 10° N
Unknown 3.6 19:05:52 10° WNW 19:09:59 69° N 19:09:59 69° N
Cosmos 2058 3.4 19:05:53 10° NNW 19:10:03 60° W 19:12:59 18° S
Cosmos 44 3.4 19:05:29 10° SSW 19:09:47 55° SSE 19:09:47 55° SSE
Cosmos 2173 Rocket 4.0 19:05:26 10° NNW 19:11:43 80° W 19:17:52 10° S
Unknown 3.7 19:07:35 10° WNW 19:11:37 69° N 19:11:37 69° N
Unknown 3.6 19:08:17 10° WNW 19:11:46 67° WSW 19:11:46 67° WSW
Cosmos 1812 Rocket 4.5 19:08:45 10° SSW 19:13:04 49° WNW 19:17:25 10° N
Unknown 3.7 19:09:15 10° WNW 19:13:13 69° N 19:13:13 69° N
Unknown 3.7 19:10:56 10° WNW 19:14:50 69° NNW 19:14:50 69° NNW
Cosmos 1864 Rocket 4.3 19:11:00 10° N 19:17:09 68° ENE 19:18:58 46° SE
Unknown 3.8 19:14:16 10° WNW 19:18:02 67° NNW 19:18:02 67° NNW
Unknown 3.9 19:15:59 10° WNW 19:19:41 65° NW 19:19:41 65° NW
Cosmos 1802 Rocket 4.1 19:13:55 10° N 19:20:24 83° W 19:26:33 11° S
Cosmos 2151 3.1 19:16:53 10° N 19:20:43 70° N 19:20:43 70° N
Unknown 3.9 19:17:33 10° WNW 19:21:12 63° NW 19:21:12 63° NW
Ariane Rocket 3.8 19:17:54 10° S 19:22:50 49° W 19:27:49 10° NNW
Unknown 4.0 19:19:11 10° WNW 19:22:45 61° NW 19:22:45 61° NW
MOS 1 4.4 19:20:54 22° S 19:24:40 73° WSW 19:30:20 10° NNW
Unknown 4.0 19:21:14 10° WNW 19:24:45 60° NW 19:24:45 60° NW
Cosmos 2123 Rocket 3.9 19:24:50 47° SSE 19:26:28 63° E 19:32:39 10° NNE
Unknown 4.1 19:22:22 10° WNW 19:25:49 58° NW 19:25:49 58° NW
Cosmos 468 Rocket 4.0 19:23:38 10° SSW 19:28:19 69° S 19:28:19 69° S
Cosmos 1300 4.2 19:25:58 10° SW 19:29:31 36° WNW 19:33:05 10° N
Unknown 4.2 19:25:42 10° WNW 19:29:01 54° NW 19:29:01 54° NW
NOSS 3-2 (A) 3.5 19:24:41 10° SW 19:30:36 79° NW 19:33:48 33° NE
Unknown 4.3 19:27:22 10° WNW 19:30:37 52° WNW 19:30:37 52° WNW
Cosmos 2150 Rocket 4.4 19:26:13 10° NNW 19:30:48 50° NNE 19:30:48 50° NNE
Cosmos 2233 Rocket 4.0 19:26:58 10° N 19:32:56 59° ENE 19:32:56 59° ENE
Unknown 4.4 19:29:14 10° WNW 19:32:25 51° WNW 19:32:25 51° WNW
Cosmos 1725 Rocket 3.9 19:27:58 10° N 19:34:18 87° E 19:36:08 50° SSE
Unknown 4.5 19:30:43 10° WNW 19:33:49 49° WNW 19:33:49 49° WNW
CZ-2C R/B 3.6 19:38:09 53° NE 19:38:09 53° NE 19:42:56 10° N
Cosmos 1937 Rocket 3.7 19:33:45 10° NNW 19:38:51 65° WSW 19:39:25 60° SW
Cosmos 2227 Rocket 4.4 19:41:03 10° N 19:43:33 13° NNE 19:43:33 13° NNE
Cosmos 2082 Rocket 4.4 19:42:45 10° NW 19:47:05 23° WSW 19:51:24 10° SSW
Cosmos 2297 Rocket 4.3 19:45:44 10° N 19:48:12 14° NNE 19:48:12 14° NNE
ADEOS Rocket 3.3 19:42:33 10° NNE 19:50:19 76° ESE 19:57:26 10° S
NOSS 3-2 (C) 3.5 19:50:28 10° SW 19:56:24 80° NW 19:57:05 71° NNE
SJ 16-02 2.9 19:59:32 10° NW 20:02:46 33° W 20:02:46 33° W
Lacrosse 5 4.3 20:02:42 10° W 20:05:16 14° WSW 20:06:45 13° SW
SPOT 3 Rocket 4.2 20:07:18 51° W 20:07:18 51° W 20:12:10 10° NNW
ATLAS CENTAUR R/B 3.6 20:04:27 10° NW 20:06:23 24° NNW 20:06:23 24° NNW
Cosmos 1238 Rocket 4.2 20:03:15 10° N 20:08:47 63° N 20:08:47 63° N
ATLAS 5 CENTAUR R/B 4.0 20:17:19 10° NW 20:20:34 20° N 20:20:34 20° N
H-2A R/B 3.1 20:23:36 43° W 20:23:36 43° W 20:28:15 10° NNW
ATLAS 3B R/B 3.0 20:17:13 10° SW 20:22:24 55° WSW 20:22:24 55° WSW
CENTAUR R/B 3.2 20:25:26 10° SW 20:29:52 49° WSW 20:29:52 49° WSW
Resurs 01 Rocket 4.4 20:43:42 15° NNW 20:43:42 15° NNW 20:44:32 10° NNW
